Mountain Home, ID

5:24 PM MDT on August 20, 2017 (GMT -0600)
Mountain Home Air Force Base

Weather History for KMUO - April, 2012

Change the Weather History Date:

Saturday, April 28, 2012

  Actual Average Record
Temperature  
Mean Temperature 44 °F 53 °F  
Max Temperature 59 °F 66 °F 92 °F (1987)
Min Temperature 28 °F 38 °F 21 °F (1913)
Degree Days  
Heating Degree Days 21 13  
Month to date heating degree days 364 452  
Cooling Degree Days 0 0  
Month to date cooling degree days 17 0  
Moisture  
Dew Point 32 °F    
Average Humidity 65    
Maximum Humidity 100    
Minimum Humidity 34    
Precipitation  
Precipitation 0.00 in 0.03 in 0.70 in (1951)
Month to date precipitation 0.73 0.96  
Sea Level Pressure  
Sea Level Pressure 30.16 in    
Wind  
Wind Speed 7 mph (NW)    
Max Wind Speed 23 mph    
Max Gust Speed 30 mph    
Visibility 10 miles    
Events      
T = Trace of Precipitation, MM = Missing Value Source: NWS Daily Summary

Daily Weather History Graph

Daily Weather History Graph

Search for Another Location

Airport or City:

Trip Planner

Search our weather history database for the weather conditions in past years. The results will help you decide how hot, cold, wet, or windy it might be!

Date:

Astronomy

Apr. 28, 2012 Rise Set
Actual Time 6:40 AM MDT 8:41 PM MDT
Civil Twilight 6:09 AM MDT 9:12 PM MDT
Nautical Twilight 5:32 AM MDT 9:50 PM MDT
Astronomical Twilight 4:50 AM MDT 10:32 PM MDT
Moon 12:24 PM MDT (4/28) 2:10 AM MDT (4/28)
Length of Visible Light 15h 02m
Length of Day
14h 01m
Waxing Crescent, 43% of the Moon is Illuminated
Apr 28
Waxing Crescent
Apr 29
First Quarter
May 5
Full
May 12
Last Quarter
May 20
New

Hourly Weather History & Observations

Time (MDT) Temp. Windchill Dew Point Humidity Pressure Visibility Wind Dir Wind Speed Gust Speed Precip Events Conditions
12:55 AM 35.4 °F 30.5 °F 30.7 °F 83% 30.22 in 10.0 mi WNW 5.8 mph - N/A   Clear
1:55 AM 32.7 °F - 31.1 °F 94% 30.22 in 10.0 mi Calm Calm - N/A   Clear
2:55 AM 34.0 °F - 30.9 °F 89% 30.20 in 10.0 mi Calm Calm - N/A   Scattered Clouds
3:55 AM 30.4 °F - 30.2 °F 99% 30.20 in 10.0 mi Calm Calm - N/A   Clear
4:55 AM 30.0 °F 26.5 °F 29.5 °F 98% 30.21 in 10.0 mi East 3.5 mph - N/A   Clear
5:55 AM 29.1 °F - 28.9 °F 99% 30.21 in 10.0 mi Calm Calm - N/A   Clear
6:55 AM 35.2 °F - 30.6 °F 83% 30.20 in 10.0 mi Calm Calm - N/A   Overcast
7:38 AM 37.4 °F - 37.4 °F 100% 30.20 in 10.0 mi Calm Calm - N/A   Overcast
7:55 AM 35.8 °F 33.0 °F 35.8 °F 100% 30.21 in 10.0 mi SW 3.5 mph - N/A   Overcast
8:06 AM 37.4 °F 33.8 °F 37.4 °F 100% 30.22 in 10.0 mi WSW 4.6 mph - N/A   Overcast
8:55 AM 39.9 °F 37.8 °F 37.4 °F 91% 30.22 in 10.0 mi West 3.5 mph - N/A   Overcast
8:57 AM 41.0 °F 38.0 °F 37.4 °F 87% 30.22 in 10.0 mi WNW 4.6 mph - N/A   Overcast
9:41 AM 46.4 °F 42.9 °F 33.8 °F 62% 30.21 in 10.0 mi WNW 6.9 mph - N/A   Overcast
9:55 AM 46.9 °F - 31.8 °F 56% 30.21 in 10.0 mi WNW 9.2 mph - N/A   Overcast
10:44 AM 51.8 °F - 28.4 °F 41% 30.20 in 10.0 mi NW 10.4 mph - N/A   Mostly Cloudy
10:55 AM 52.0 °F - 27.9 °F 39% 30.19 in 10.0 mi WNW 11.5 mph 18.4 mph N/A   Mostly Cloudy
11:55 AM 53.8 °F - 27.1 °F 36% 30.18 in 10.0 mi NW 10.4 mph 18.4 mph N/A   Mostly Cloudy
12:55 PM 55.6 °F - 28.9 °F 36% 30.17 in 10.0 mi NNW 13.8 mph 19.6 mph N/A   Partly Cloudy
1:55 PM 57.0 °F - 30.4 °F 36% 30.16 in 10.0 mi NNW 19.6 mph 26.5 mph N/A   Partly Cloudy
2:55 PM 57.9 °F - 31.3 °F 36% 30.13 in 10.0 mi NNW 19.6 mph 24.2 mph N/A   Partly Cloudy
3:55 PM 58.5 °F - 31.6 °F 36% 30.12 in 10.0 mi NNW 23.0 mph 29.9 mph N/A   Clear
4:55 PM 58.8 °F - 30.6 °F 34% 30.11 in 10.0 mi NNW 18.4 mph 28.8 mph N/A   Clear
5:55 PM 58.8 °F - 32.0 °F 36% 30.10 in 10.0 mi NW 21.9 mph 29.9 mph N/A   Clear
6:55 PM 57.9 °F - 31.8 °F 37% 30.08 in 10.0 mi NNW 19.6 mph - N/A   Clear
7:55 PM 56.3 °F - 32.2 °F 40% 30.06 in 10.0 mi NW 19.6 mph - N/A   Clear
8:55 PM 51.6 °F - 33.3 °F 50% 30.06 in 10.0 mi NW 15.0 mph - N/A   Clear
9:55 PM 48.7 °F - 33.8 °F 56% 30.07 in 10.0 mi WNW 15.0 mph - N/A   Clear
10:55 PM 46.4 °F 40.4 °F 35.1 °F 65% 30.06 in 10.0 mi WNW 13.8 mph - N/A   Clear
11:55 PM 46.0 °F 39.0 °F 35.1 °F 66% 30.05 in 10.0 mi WNW 17.3 mph - N/A   Clear